Clarksburg, WV

4:33 PM EDT on May 22, 2017 (GMT -0400)
Benedum

Weather History for KCKB - June, 2013

Change the Weather History Date:

Friday, June 7, 2013

  Actual Average Record
Temperature  
Mean Temperature 65 °F -  
Max Temperature 69 °F 78 °F 95 °F (1955)
Min Temperature 62 °F 53 °F 36 °F (1945)
Growing Degree Days 15 (Base 50)    
Moisture  
Dew Point 61 °F    
Average Humidity 86    
Maximum Humidity 94    
Minimum Humidity 73    
Precipitation  
Precipitation 0.13 in - - ()
Sea Level Pressure  
Sea Level Pressure 29.78 in    
Wind  
Wind Speed 4 mph (NNW)    
Max Wind Speed 10 mph    
Max Gust Speed -    
Visibility 8 miles    
Events Rain    
Averages and records for this station are not official NWS values.
T = Trace of Precipitation, MM = Missing Value Source: NWS Daily Summary

Daily Weather History Graph

Daily Weather History Graph

Search for Another Location

Airport or City:

Trip Planner

Search our weather history database for the weather conditions in past years. The results will help you decide how hot, cold, wet, or windy it might be!

Date:

Astronomy

Jun. 07, 2013 Rise Set
Actual Time 5:54 AM EDT 8:45 PM EDT
Civil Twilight 5:22 AM EDT 9:17 PM EDT
Nautical Twilight 4:42 AM EDT 9:58 PM EDT
Astronomical Twilight 3:55 AM EDT 10:44 PM EDT
Moon 5:15 AM EDT (6/7) 7:58 PM EDT (6/7)
Length of Visible Light 15h 55m
Length of Day
14h 51m
Waning Crescent, 1% of the Moon is Illuminated
Jun 7
Waning Crescent
Jun 8
New
Jun 16
First Quarter
Jun 23
Full
Jun 30
Last Quarter

Hourly Weather History & Observations

Time (EDT) Temp. Dew Point Humidity Pressure Visibility Wind Dir Wind Speed Gust Speed Precip Events Conditions
12:53 AM 68.0 °F 64.9 °F 90% 29.77 in 10.0 mi WSW 3.5 mph - N/A   Overcast
1:18 AM 68.0 °F 64.4 °F 88% 29.81 in 10.0 mi Calm Calm - N/A   Overcast
1:25 AM 68.0 °F 64.4 °F 88% 29.81 in 10.0 mi Calm Calm - N/A   Overcast
1:34 AM 68.0 °F 64.4 °F 88% 29.80 in 10.0 mi Calm Calm - N/A   Overcast
1:53 AM 66.9 °F 64.9 °F 93% 29.77 in 10.0 mi Calm Calm - N/A   Overcast
2:05 AM 68.0 °F 64.4 °F 88% 29.81 in 10.0 mi Calm Calm - N/A   Overcast
2:24 AM 68.0 °F 64.4 °F 88% 29.80 in 10.0 mi Calm Calm - N/A   Overcast
2:53 AM 66.9 °F 64.0 °F 90% 29.75 in 10.0 mi NW 3.5 mph - N/A   Overcast
3:16 AM 66.2 °F 64.4 °F 94% 29.79 in 10.0 mi Calm Calm - N/A   Mostly Cloudy
3:53 AM 66.0 °F 64.0 °F 93% 29.75 in 9.0 mi Calm Calm - N/A   Mostly Cloudy
4:02 AM 66.2 °F 64.4 °F 94% 29.79 in 7.0 mi Calm Calm - N/A   Overcast
4:44 AM 66.2 °F 64.4 °F 94% 29.79 in 9.0 mi North 3.5 mph - N/A   Overcast
4:53 AM 66.0 °F 63.0 °F 90% 29.75 in 10.0 mi Calm Calm - N/A   Overcast
5:22 AM 64.4 °F 62.6 °F 94% 29.78 in 9.0 mi NNE 5.8 mph - N/A   Overcast
5:44 AM 64.4 °F 62.6 °F 94% 29.78 in 9.0 mi NNE 4.6 mph - N/A   Overcast
5:53 AM 64.9 °F 62.1 °F 90% 29.75 in 9.0 mi NNE 4.6 mph - N/A   Overcast
6:28 AM 64.4 °F 62.6 °F 94% 29.79 in 6.0 mi Calm Calm - N/A   Overcast
6:53 AM 64.9 °F 63.0 °F 93% 29.76 in 6.0 mi NNE 4.6 mph - N/A   Overcast
7:20 AM 64.4 °F 62.6 °F 94% 29.79 in 3.0 mi North 4.6 mph - 0.00 in Rain Light Rain
7:45 AM 64.4 °F 62.6 °F 94% 29.79 in 2.0 mi North 6.9 mph - 0.00 in Rain Light Rain
7:53 AM 64.0 °F 62.1 °F 93% 29.75 in 2.5 mi NNE 6.9 mph - 0.01 in Rain Light Rain
8:04 AM 64.4 °F 62.6 °F 94% 29.79 in 3.0 mi NNE 5.8 mph - 0.00 in Rain Light Rain
8:53 AM 64.0 °F 62.1 °F 93% 29.75 in 3.0 mi NNE 5.8 mph - 0.03 in Rain Light Rain
9:01 AM 64.4 °F 62.6 °F 94% 29.79 in 5.0 mi NNE 6.9 mph - 0.00 in Rain Light Rain
9:23 AM 64.4 °F 62.6 °F 94% 29.79 in 4.0 mi NNE 5.8 mph - 0.02 in Rain Rain
9:53 AM 64.9 °F 62.1 °F 90% 29.75 in 4.0 mi NNE 8.1 mph - 0.07 in Rain Rain
10:53 AM 64.9 °F 63.0 °F 93% 29.74 in 10.0 mi North 8.1 mph - 0.02 in Rain Light Rain
11:53 AM 64.0 °F 62.1 °F 93% 29.75 in 10.0 mi North 9.2 mph - 0.00 in   Overcast
12:53 PM 66.0 °F 62.1 °F 87% 29.74 in 10.0 mi North 8.1 mph - N/A   Overcast
1:53 PM 64.9 °F 61.0 °F 87% 29.74 in 9.0 mi North 6.9 mph - N/A   Overcast
2:53 PM 66.0 °F 62.1 °F 87% 29.73 in 6.0 mi North 9.2 mph - 0.00 in Rain Light Rain
3:01 PM 66.2 °F 62.6 °F 88% 29.76 in 7.0 mi North 8.1 mph - 0.00 in   Overcast
3:38 PM 68.0 °F 62.6 °F 83% 29.75 in 8.0 mi North 8.1 mph - 0.00 in   Overcast
3:50 PM 66.2 °F 62.6 °F 88% 29.75 in 8.0 mi North 9.2 mph - 0.00 in   Overcast
3:53 PM 66.9 °F 62.1 °F 84% 29.72 in 8.0 mi North 8.1 mph - 0.00 in   Overcast
4:06 PM 68.0 °F 62.6 °F 83% 29.75 in 9.0 mi NNW 8.1 mph - N/A   Overcast
4:26 PM 68.0 °F 60.8 °F 78% 29.75 in 9.0 mi North 6.9 mph - N/A   Overcast
4:34 PM 68.0 °F 60.8 °F 78% 29.75 in 10.0 mi North 8.1 mph - N/A   Overcast
4:53 PM 66.9 °F 61.0 °F 81% 29.72 in 9.0 mi NW 9.2 mph - N/A   Overcast
5:24 PM 66.2 °F 60.8 °F 83% 29.76 in 9.0 mi WNW 6.9 mph - N/A   Overcast
5:35 PM 66.2 °F 60.8 °F 83% 29.75 in 7.0 mi NNW 10.4 mph - N/A   Overcast
5:53 PM 66.0 °F 60.1 °F 81% 29.73 in 7.0 mi NNW 9.2 mph - N/A   Overcast
6:53 PM 66.0 °F 59.0 °F 78% 29.75 in 7.0 mi NW 4.6 mph - N/A   Overcast
7:39 PM 66.2 °F 57.2 °F 73% 29.80 in 7.0 mi WNW 6.9 mph - N/A   Scattered Clouds
7:53 PM 64.9 °F 57.9 °F 78% 29.77 in 7.0 mi WNW 5.8 mph - N/A   Scattered Clouds
8:00 PM 64.4 °F 57.2 °F 77% 29.80 in 7.0 mi WNW 4.6 mph - N/A   Mostly Cloudy
8:53 PM 64.0 °F 55.9 °F 75% 29.79 in 10.0 mi WNW 5.8 mph - N/A   Mostly Cloudy
9:27 PM 64.4 °F 55.4 °F 73% 29.83 in 10.0 mi WNW 6.9 mph - N/A   Overcast
9:53 PM 64.0 °F 55.0 °F 73% 29.82 in 10.0 mi WNW 5.8 mph - N/A   Overcast
10:11 PM 64.4 °F 55.4 °F 73% 29.86 in 10.0 mi WNW 3.5 mph - N/A   Overcast
10:53 PM 63.0 °F 55.0 °F 75% 29.84 in 10.0 mi West 3.5 mph - N/A   Overcast
11:17 PM 62.6 °F 55.4 °F 77% 29.87 in 10.0 mi Calm Calm - N/A   Overcast
11:53 PM 63.0 °F 55.0 °F 75% 29.85 in 10.0 mi West 3.5 mph - N/A   Overcast